Showing default

OPS 9328 (IDSCS 15), 2655

Orbit data source: Space-Track

OPS 9328 (IDSCS 15), 2655 is a payload satellite owned by USAF SSD (US) in GEO that was launched on Wed, 18 Jan 1967 UTC via a TITAN IIIC launch vehicle from the Air Force Eastern Test Range (AFETR). Payload-class satellites include a variety of spacecraft equipped with specific instruments for various scientific and technological missions. These include communications satellites like Starlink; space stations such as the ISS; scientific satellites like the Hubble; Earth observation satellites from companies like Planet Labs, Umbra, and HawkEye 360; GPS; miniature CubeSats for education and research; and military/defense satellites.

Not visible in the next 10 days
Identifier
2655, 1967-003H
Orbit
GEO
Country
Flag of USUS
Related business
Manufacturer
Philco-Ford WDL
Mission
Non-operational spacecraft
Bus & Motor
IDCSP, Unknown motor
Mass
45 kg wet, 45 kg dry
Launch date (UTC)
1967-01-18 (59 years ago)
Launch vehicle
TITAN IIIC
Launch site
Air Force Eastern Test Range (AFETR)
Object type
Payload
Rocket body
Debris
Shape & HBR
Unknown
Radar Cross Section
Medium (>0.1 m² and <1 m²)

Expand to show TLE details & history
Last TLE update: 18 hours ago

TLE from 18 hours ago
0 OPS 9328 (IDSCS 15)
1  2655U 67003H   25295.91492852 -.00000097  00000-0  00000+0 0  9993
2  2655   7.5942  50.0169 0071670  33.5172 320.3276  1.07230200136659
Epoch: 2025-10-22T21:57Z
TLE epoch observation values (Epoch: 2025-10-22T21:57:29.824Z)
Latitude
-0.8735°
Longitude
42.40942°
Altitude
33,719.722 km
Speed
3.162 km/s
True Right ascension
02h 53m 27s
True Declination
0° 52' 21"
Sunlit
Object was in daylight at epoch
Visualization orbit readout
Latitude
Unknown
Longitude
Unknown
Altitude
Unknown
Speed
Unknown
Apparent Right ascension
Unknown
Apparent Declination
Unknown
Sunlit
N/A
Visualization observer readout
Local Sidereal Time
11:15:02
Azimuth
Unknown
Elevation
Unknown
Doppler factor
Unknown
Orbital elements
Apogee altitude
34,232.236 km
Perigee altitude
33,654.269 km
Semi-major axis
40,321.389 km
Eccentricity
0.00717
Inclination
7.5942°
RAAN
50.0169°
Arg. of periapsis
33.5172°
True anomaly
319.79967°
Mean anomaly
320.3276°
Eccentric anomaly
320.064°
Mean motion
0.26806 °/min
Orbital period
1,342.96 mins
BSTAR
0
Loading maneuver chart data...
Computing Atmospheric mass density...
Loading historical data...
Loading historical data...
Loading historical data...
Loading historical data...
Loading historical data...
Loading historical data...
Loading historical data...

Documentation

Showing up to 5 results
|